Change the Weather History Date:

Wednesday, August 13, 2014

  Actual Average Record
Temperature  
Mean Temperature 82 °F -  
Max Temperature 91 °F 90 °F 100 °F (1954)
Min Temperature 73 °F 68 °F 63 °F (1962)
Cooling Degree Days 17    
Growing Degree Days 32 (Base 50)    
Moisture  
Dew Point 74 °F    
Average Humidity 81    
Maximum Humidity 94    
Minimum Humidity 52    
Precipitation  
Precipitation 0.00 in - - ()
Sea Level Pressure  
Sea Level Pressure 29.96 in    
Wind  
Wind Speed 5 mph (SW)    
Max Wind Speed 10 mph    
Max Gust Speed 17 mph    
Visibility 9 miles    
Events Rain    
Averages and records for this station are not official NWS values.
T = Trace of Precipitation, MM = Missing Value Source: NWS Daily Summary

Daily Weather History Graph

Daily Weather History Graph

Search for Another Location

Airport or City:

Trip Planner

Search our weather history database for the weather conditions in past years. The results will help you decide how hot, cold, wet, or windy it might be!

Date:

Astronomy

Aug. 13, 2014 Rise Set
Actual Time 6:55 AM EDT 8:16 PM EDT
Civil Twilight 6:29 AM EDT 8:42 PM EDT
Nautical Twilight 5:59 AM EDT 9:12 PM EDT
Astronomical Twilight 5:27 AM EDT 9:44 PM EDT
Moon 10:19 PM EDT (8/13) 10:06 AM EDT (8/13)
Length of Visible Light 14h 12m
Length of Day
13h 21m
Waning Gibbous, 88% of the Moon is Illuminated
Aug 13
Waning Gibbous
Aug 17
Last Quarter
Aug 25
New
Sep 2
First Quarter
Sep 8
Full

Hourly Weather History & Observations

Time (EDT) Temp. Heat Index Dew Point Humidity Pressure Visibility Wind Dir Wind Speed Gust Speed Precip Events Conditions
12:15 AM 75.2 °F - 73.4 °F 94% 29.95 in 10.0 mi SW 6.9 mph - N/A   Clear
12:35 AM 75.2 °F - 73.4 °F 94% 29.95 in 10.0 mi SW 4.6 mph - N/A   Clear
12:55 AM 75.2 °F - 73.4 °F 94% 29.94 in 10.0 mi SW 4.6 mph - N/A   Clear
1:15 AM 75.2 °F - 73.4 °F 94% 29.95 in 10.0 mi SW 4.6 mph - N/A   Clear
1:35 AM 73.4 °F - 71.6 °F 94% 29.95 in 10.0 mi Calm Calm - N/A   Clear
1:55 AM 75.2 °F - 73.4 °F 94% 29.95 in 10.0 mi Calm Calm - N/A   Scattered Clouds
2:15 AM 73.4 °F - 71.6 °F 94% 29.95 in 10.0 mi Calm Calm - N/A   Scattered Clouds
2:35 AM 73.4 °F - 71.6 °F 94% 29.95 in 10.0 mi SW 3.5 mph - N/A   Clear
2:55 AM 73.4 °F - 71.6 °F 94% 29.95 in 7.0 mi Calm Calm - N/A   Clear
3:15 AM 73.4 °F - 71.6 °F 94% 29.95 in 7.0 mi Calm Calm - N/A   Clear
3:35 AM 73.4 °F - 71.6 °F 94% 29.95 in 10.0 mi Calm Calm - N/A   Clear
3:55 AM 73.4 °F - 71.6 °F 94% 29.94 in 7.0 mi Calm Calm - N/A   Clear
4:15 AM 73.4 °F - 71.6 °F 94% 29.95 in 7.0 mi SW 4.6 mph - N/A   Clear
4:35 AM 73.4 °F - 71.6 °F 94% 29.94 in 7.0 mi SW 3.5 mph - N/A   Clear
4:55 AM 73.4 °F - 71.6 °F 94% 29.94 in 7.0 mi WSW 4.6 mph - N/A   Clear
5:15 AM 73.4 °F - 71.6 °F 94% 29.94 in 5.0 mi SW 4.6 mph - N/A   Clear
5:35 AM 73.4 °F - 71.6 °F 94% 29.94 in 7.0 mi SW 3.5 mph - N/A   Clear
5:55 AM 73.4 °F - 71.6 °F 94% 29.94 in 5.0 mi SW 3.5 mph - N/A   Clear
6:15 AM 73.4 °F - 71.6 °F 94% 29.95 in 5.0 mi SW 3.5 mph - N/A   Clear
6:40 AM 73.4 °F - 71.6 °F 94% 29.96 in 5.0 mi SW 3.5 mph - N/A   Scattered Clouds
6:55 AM 73.4 °F - 71.6 °F 94% 29.96 in 5.0 mi SW 4.6 mph - N/A   Clear
7:15 AM 73.4 °F - 71.6 °F 94% 29.97 in 4.0 mi WSW 3.5 mph - N/A   Clear
7:35 AM 75.2 °F - 73.4 °F 94% 29.97 in 4.0 mi WSW 3.5 mph - N/A   Scattered Clouds
7:55 AM 75.2 °F - 73.4 °F 94% 29.98 in 4.0 mi SW 3.5 mph - N/A   Scattered Clouds
8:35 AM 78.8 °F - 75.2 °F 89% 29.98 in 7.0 mi West 5.8 mph - N/A   Scattered Clouds
8:55 AM 78.8 °F - 73.4 °F 83% 29.99 in 10.0 mi West 6.9 mph - N/A   Scattered Clouds
9:15 AM 80.6 °F 85.4 °F 73.4 °F 79% 29.99 in 10.0 mi West 6.9 mph - N/A   Clear
9:35 AM 80.6 °F 85.4 °F 73.4 °F 79% 29.99 in 10.0 mi West 5.8 mph - N/A   Clear
9:55 AM 82.4 °F 89.5 °F 75.2 °F 79% 29.99 in 10.0 mi West 5.8 mph - N/A   Scattered Clouds
10:35 AM 86.0 °F 95.1 °F 75.2 °F 70% 30.00 in 10.0 mi West 3.5 mph - N/A   Scattered Clouds
11:15 AM 87.8 °F 97.6 °F 75.2 °F 66% 29.99 in 10.0 mi SSW 8.1 mph - N/A   Scattered Clouds
11:35 AM 87.8 °F 97.6 °F 75.2 °F 66% 29.99 in 10.0 mi WSW 9.2 mph - N/A   Scattered Clouds
11:55 AM 87.8 °F 95.6 °F 73.4 °F 62% 29.99 in 10.0 mi SSW 8.1 mph - N/A   Scattered Clouds
12:15 PM 87.8 °F 93.8 °F 71.6 °F 58% 29.98 in 10.0 mi SW 6.9 mph - N/A   Scattered Clouds
12:35 PM 89.6 °F 96.2 °F 71.6 °F 55% 29.98 in 10.0 mi WSW 10.4 mph - N/A   Scattered Clouds
12:55 PM 91.4 °F 98.4 °F 71.6 °F 52% 29.97 in 10.0 mi SW 10.4 mph - N/A   Scattered Clouds
1:15 PM 91.4 °F 98.4 °F 71.6 °F 52% 29.97 in 10.0 mi SW 10.4 mph - N/A   Scattered Clouds
1:35 PM 91.4 °F 98.4 °F 71.6 °F 52% 29.97 in 10.0 mi SW 8.1 mph - N/A   Mostly Cloudy
1:55 PM 89.6 °F 96.2 °F 71.6 °F 55% 29.97 in 10.0 mi WSW 6.9 mph - N/A   Mostly Cloudy
2:15 PM 91.4 °F 98.4 °F 71.6 °F 52% 29.97 in 10.0 mi SW 8.1 mph - N/A   Scattered Clouds
2:35 PM 91.4 °F 98.4 °F 71.6 °F 52% 29.95 in 10.0 mi SSW 4.6 mph - N/A   Clear
2:55 PM 89.6 °F 96.2 °F 71.6 °F 55% 29.94 in 10.0 mi South 4.6 mph - N/A   Mostly Cloudy
3:15 PM 87.8 °F 95.6 °F 73.4 °F 62% 29.94 in 10.0 mi SSW 5.8 mph - N/A   Mostly Cloudy
3:35 PM 86.0 °F 95.1 °F 75.2 °F 70% 29.94 in 7.0 mi SW 9.2 mph - N/A Rain Heavy Rain
3:55 PM 80.6 °F 85.4 °F 73.4 °F 79% 29.94 in 5.0 mi SSW 10.4 mph 17.3 mph N/A Rain Light Rain
4:15 PM 80.6 °F 86.2 °F 75.2 °F 84% 29.94 in 10.0 mi SSW 5.8 mph - N/A   Scattered Clouds
4:35 PM 80.6 °F 87.1 °F 77.0 °F 89% 29.94 in 10.0 mi South 3.5 mph - N/A   Clear
4:55 PM 82.4 °F 90.9 °F 77.0 °F 84% 29.94 in 10.0 mi SSW 6.9 mph - N/A   Clear
5:15 PM 82.4 °F 90.9 °F 77.0 °F 84% 29.93 in 10.0 mi SSW 6.9 mph - N/A   Clear
5:35 PM 84.2 °F 94.1 °F 77.0 °F 79% 29.93 in 10.0 mi SSW 4.6 mph - N/A   Clear
5:55 PM 84.2 °F 94.1 °F 77.0 °F 79% 29.94 in 10.0 mi SSW 6.9 mph - N/A   Clear
6:15 PM 86.0 °F 96.9 °F 77.0 °F 74% 29.94 in 10.0 mi SSW 6.9 mph - N/A   Clear
6:35 PM 86.0 °F 95.1 °F 75.2 °F 70% 29.94 in 10.0 mi SSW 5.8 mph - N/A   Scattered Clouds
6:55 PM 86.0 °F 96.9 °F 77.0 °F 74% 29.94 in 10.0 mi Calm Calm - N/A   Scattered Clouds
7:15 PM 84.2 °F 94.1 °F 77.0 °F 79% 29.94 in 10.0 mi Calm Calm - N/A   Scattered Clouds
7:35 PM 82.4 °F 90.9 °F 77.0 °F 84% 29.95 in 10.0 mi Calm Calm - N/A   Clear
7:55 PM 82.4 °F 90.9 °F 77.0 °F 84% 29.95 in 10.0 mi Calm Calm - N/A   Clear
8:55 PM 80.6 °F 86.2 °F 75.2 °F 84% 29.96 in 10.0 mi SSW 4.6 mph - N/A   Clear
9:35 PM 80.6 °F 86.2 °F 75.2 °F 84% 29.97 in 10.0 mi SSW 4.6 mph - N/A   Scattered Clouds